Retour au catalogue

STARLINK-37349

ActifCommunicationsSSO
NORAD 68734·PAYLOAD·🇺🇸 United States

Lancé Apr 15, 2026 depuis Vandenberg Space Force Base

Loading…

Prochains Passages (prochaines 24 heures)

TLE

FraisSource: CelesTrak SupGP

Époque: Sep 14, 2026, 22:41 UTC

1 68734C 26082G   26257.94562500  .00070883  00000+0  22009-2 0  2576
2 68734  97.2846 120.2245 0001683  92.9403  45.2260 15.33395031    10

Suivez STARLINK-37349 en temps réel avec AllMySat

Download on the App Store